sat.trackr.live / text

‹ back to catalog

STARLINK-31814

NORAD 59802 · 2024-093W

PAYLOAD ACTIVE UNKNOWN

§ Identity

Operator
Country
US
Launch date
2024-05-18
Launch site
AFETR
Launch vehicle
Mass (kg)
RCS (m²)

Purposes: comms

External: N2YO · Heavens-Above · Gunter

§ Orbital elements

Epoch: 2026-05-25T00:23:48.064992Z

Period
94.27 min
Inclination
43.0021°
Eccentricity
0.0001528
Mean motion
15.27591342 rev/d
Perigee alt
482.0 km
Apogee alt
484.1 km
Semi-major
6,861.2 km
B*
6.9505e-5
RAAN
138.2525°
Arg perigee
276.5187°
Mean anomaly
83.5491°
Rev number
11,436

§ Raw data

STARLINK-318141 59802U 24093W   26145.01652853  .00001651  00000+0  69505-4 0  99912 59802  43.0021 138.2525 0001528 276.5187  83.5491 15.27591342114368

JSON: /api/v1/satellites/59802 · /tle

For live sub-satellite position, see the globe view (requires WebGL).

§ Visibility from observer

Set your observer location to see the next 7 days of passes ≥ 10°. The values pass through the URL so the page stays shareable.

No JS? Fill the form by hand. The geolocation button needs JavaScript.